QPF
0.01 0.01 0.01 0.00 0.00 0.00 0.00 0.00 0.00 0.00 0.00 0.01 0.01 0.00 0.00 0.00 0.00 0.01 0.01 0.01 0.01 0.01 0.01 0.01 0.01 0.01 0.01 0.01 0.01 0.01 0.01 0.01 0.01 0.01 0.02 0.03 0.03 0.02 0.02 0.02 0.02 0.03 0.03 0.02
0.01 0.01 0.01 0.01 0.00 0.00 0.00 0.00 0.00 0.00 0.01 0.00 0.00 0.00 0.00 0.01 0.01 0.01 0.01 0.01 0.01 0.01 0.01 0.02 0.02 0.02 0.01 0.01 0.01 0.01 0.00 0.00 0.01 0.01 0.02 0.02 0.02 0.01 0.01 0.01 0.02 0.03 0.03 0.03
0.01 0.01 0.01 0.01 0.00 0.00 0.00 0.00 0.00 0.00 0.01 0.00 0.00 0.00 0.00 0.00 0.01 0.01 0.01 0.01 0.01 0.01 0.01 0.01 0.02 0.02 0.02 0.02 0.01 0.01 0.01 0.01 0.01 0.01 0.01 0.01 0.01 0.01 0.01 0.02 0.02 0.03 0.03 0.04
0.00 0.00 0.00 0.00 0.00 0.00 0.00 0.00 0.00 0.01 0.01 0.01 0.00 0.00 0.00 0.00 0.00 0.00 0.00 0.01 0.01 0.01 0.01 0.01 0.01 0.02 0.02 0.02 0.02 0.02 0.01 0.01 0.01 0.01 0.01 0.01 0.01 0.01 0.02 0.02 0.02 0.02 0.02 0.03
0.00 0.00 0.00 0.00 0.00 0.00 0.00 0.00 0.00 0.01 0.00 0.00 0.00 0.00 0.00 0.00 0.00 0.00 0.00 0.01 0.01 0.01 0.01 0.01 0.01 0.02 0.02 0.03 0.03 0.03 0.02 0.01 0.01 0.01 0.01 0.02 0.02 0.02 0.03 0.03 0.02 0.03 0.03 0.03
0.00 0.00 0.00 0.00 0.00 0.00 0.01 0.01 0.01 0.01 0.00 0.00 0.00 0.00 0.00 0.00 0.00 0.00 0.00 0.00 0.00 0.01 0.01 0.01 0.01 0.02 0.02 0.03 0.04 0.03 0.03 0.03 0.02 0.02 0.02 0.02 0.02 0.02 0.02 0.03 0.03 0.03 0.04 0.04
0.01 0.01 0.01 0.00 0.00 0.01 0.01 0.02 0.01 0.00 0.00 0.00 0.00 0.00 0.00 0.00 0.00 0.00 0.00 0.01 0.00 0.01 0.01 0.01 0.01 0.01 0.02 0.02 0.03 0.03 0.03 0.03 0.03 0.03 0.03 0.02 0.02 0.02 0.03 0.03 0.03 0.03 0.04 0.05
0.01 0.01 0.01 0.00 0.00 0.00 0.01 0.01 0.01 0.00 0.01 0.01 0.01 0.01 0.00 0.00 0.00 0.00 0.00 0.00 0.01 0.01 0.01 0.01 0.01 0.01 0.02 0.03 0.04 0.04 0.04 0.04 0.05 0.04 0.03 0.03 0.02 0.02 0.03 0.03 0.03 0.02 0.02 0.03
0.01 0.01 0.00 0.00 0.00 0.00 0.00 0.00 0.00 0.01 0.03 0.02 0.01 0.01 0.00 0.00 0.00 0.00 0.00 0.00 0.01 0.01 0.01 0.01 0.02 0.02 0.03 0.03 0.04 0.05 0.06 0.06 0.06 0.05 0.04 0.02 0.02 0.02 0.02 0.02 0.02 0.02 0.02 0.01
0.01 0.01 0.00 0.00 0.00 0.00 0.00 0.00 0.00 0.01 0.02 0.01 0.00 0.00 0.00 0.00 0.00 0.00 0.01 0.01 0.01 0.01 0.01 0.01 0.02 0.02 0.02 0.03 0.03 0.03 0.05 0.06 0.06 0.05 0.04 0.03 0.02 0.02 0.02 0.02 0.02 0.02 0.01 0.01
0.01 0.00 0.00 0.00 0.00 0.00 0.00 0.00 0.00 0.01 0.00 0.01 0.01 0.01 0.00 0.00 0.00 0.01 0.01 0.01 0.00 0.01 0.01 0.01 0.02 0.02 0.02 0.03 0.03 0.04 0.04 0.05 0.06 0.07 0.05 0.04 0.03 0.02 0.02 0.02 0.02 0.02 0.02 0.02
0.01 0.00 0.00 0.00 0.00 0.00 0.00 0.00 0.00 0.01 0.01 0.01 0.01 0.01 0.01 0.01 0.00 0.00 0.00 0.00 0.01 0.01 0.01 0.02 0.03 0.03 0.04 0.05 0.05 0.05 0.05 0.05 0.04 0.04 0.05 0.05 0.03 0.02 0.02 0.02 0.02 0.02 0.02 0.02
0.00 0.00 0.00 0.00 0.00 0.00 0.00 0.00 0.00 0.01 0.01 0.00 0.00 0.00 0.00 0.00 0.01 0.00 0.01 0.01 0.01 0.01 0.02 0.03 0.05 0.06 0.06 0.06 0.06 0.05 0.05 0.04 0.04 0.03 0.03 0.05 0.06 0.04 0.03 0.02 0.01 0.01 0.01 0.01
0.00 0.00 0.00 0.00 0.00 0.00 0.00 0.00 0.00 0.00 0.00 0.00 0.00 0.00 0.01 0.01 0.02 0.02 0.02 0.02 0.02 0.03 0.04 0.04 0.05 0.05 0.06 0.07 0.07 0.07 0.06 0.05 0.04 0.03 0.03 0.03 0.04 0.05 0.04 0.02 0.01 0.00 0.00 0.00
0.01 0.01 0.01 0.00 0.00 0.00 0.00 0.00 0.00 0.00 0.00 0.00 0.00 0.01 0.01 0.01 0.02 0.02 0.02 0.02 0.02 0.02 0.03 0.03 0.03 0.03 0.04 0.04 0.03 0.03 0.02 0.02 0.02 0.01 0.01 0.01 0.03 0.03 0.04 0.03 0.02 0.01 0.01 0.01
0.01 0.01 0.01 0.01 0.01 0.00 0.00 0.00 0.01 0.01 0.01 0.01 0.01 0.01 0.01 0.01 0.01 0.01 0.01 0.02 0.02 0.03 0.03 0.02 0.02 0.02 0.02 0.02 0.02 0.02 0.01 0.01 0.01 0.00 0.00 0.00 0.01 0.02 0.03 0.03 0.03 0.02 0.01 0.01
0.01 0.01 0.01 0.01 0.01 0.00 0.00 0.00 0.01 0.01 0.00 0.00 0.01 0.01 0.01 0.01 0.01 0.01 0.01 0.02 0.02 0.02 0.02 0.02 0.02 0.02 0.01 0.01 0.01 0.01 0.01 0.01 0.01 0.00 0.00 0.01 0.01 0.01 0.01 0.02 0.03 0.03 0.03 0.03
0.01 0.01 0.01 0.01 0.01 0.01 0.01 0.01 0.01 0.00 0.00 0.00 0.00 0.01 0.01 0.01 0.01 0.01 0.01 0.01 0.01 0.01 0.01 0.01 0.01 0.01 0.01 0.01 0.01 0.01 0.01 0.01 0.00 0.00 0.00 0.01 0.01 0.01 0.01 0.01 0.02 0.02 0.03 0.04
0.01 0.01 0.01 0.01 0.01 0.01 0.01 0.01 0.00 0.00 0.00 0.01 0.00 0.01 0.01 0.01 0.01 0.01 0.02 0.01 0.01 0.01 0.01 0.02 0.02 0.02 0.02 0.02 0.02 0.01 0.01 0.01 0.01 0.01 0.02 0.02 0.02 0.01 0.01 0.01 0.01 0.01 0.02 0.03
0.01 0.01 0.01 0.01 0.01 0.01 0.01 0.01 0.01 0.00 0.01 0.01 0.01 0.01 0.01 0.02 0.02 0.03 0.02 0.02 0.03 0.03 0.03 0.02 0.02 0.01 0.01 0.01 0.01 0.01 0.01 0.01 0.00 0.01 0.01 0.01 0.01 0.01 0.01 0.01 0.01 0.01 0.02 0.02
0.01 0.01 0.01 0.02 0.02 0.01 0.01 0.01 0.01 0.01 0.01 0.01 0.01 0.02 0.02 0.02 0.03 0.03 0.02 0.02 0.03 0.03 0.02 0.02 0.01 0.01 0.01 0.01 0.01 0.00 0.00 0.00 0.00 0.00 0.01 0.01 0.01 0.01 0.01 0.01 0.02 0.02 0.02 0.02
0.01 0.01 0.01 0.02 0.02 0.02 0.01 0.01 0.01 0.01 0.01 0.01 0.02 0.03 0.03 0.03 0.03 0.02 0.02 0.02 0.01 0.02 0.01 0.01 0.01 0.02 0.02 0.01 0.00 0.01 0.01 0.01 0.01 0.01 0.01 0.01 0.01 0.01 0.01 0.01 0.01 0.01 0.02 0.02
0.01 0.01 0.01 0.02 0.02 0.02 0.01 0.01 0.01 0.01 0.02 0.02 0.03 0.04 0.05 0.04 0.02 0.02 0.02 0.02 0.01 0.01 0.01 0.01 0.02 0.02 0.01 0.01 0.01 0.01 0.01 0.01 0.02 0.02 0.02 0.02 0.02 0.02 0.02 0.02 0.02 0.02 0.02 0.02
0.01 0.01 0.01 0.01 0.02 0.02 0.01 0.01 0.01 0.02 0.02 0.02 0.03 0.03 0.02 0.02 0.02 0.02 0.02 0.02 0.01 0.01 0.01 0.01 0.01 0.02 0.02 0.01 0.01 0.01 0.01 0.01 0.02 0.02 0.02 0.02 0.02 0.02 0.02 0.02 0.02 0.02 0.01 0.01
0.02 0.02 0.02 0.02 0.03 0.02 0.02 0.02 0.01 0.02 0.01 0.02 0.02 0.02 0.02 0.02 0.02 0.02 0.02 0.02 0.01 0.01 0.01 0.01 0.02 0.03 0.02 0.01 0.01 0.01 0.01 0.01 0.02 0.02 0.02 0.02 0.02 0.02 0.01 0.02 0.02 0.02 0.02 0.02
0.02 0.02 0.02 0.02 0.03 0.03 0.02 0.02 0.02 0.01 0.01 0.02 0.01 0.01 0.01 0.01 0.01 0.02 0.02 0.02 0.02 0.02 0.02 0.01 0.02 0.02 0.01 0.02 0.02 0.02 0.02 0.02 0.03 0.03 0.04 0.04 0.03 0.03 0.02 0.01 0.02 0.03 0.03 0.02
0.02 0.02 0.02 0.02 0.02 0.03 0.03 0.02 0.02 0.02 0.03 0.02 0.02 0.01 0.01 0.01 0.01 0.02 0.02 0.02 0.02 0.02 0.01 0.02 0.02 0.02 0.02 0.02 0.03 0.03 0.03 0.03 0.04 0.04 0.05 0.04 0.03 0.02 0.02 0.02 0.02 0.02 0.03 0.02
MSLP
1007.20 1007.24 1007.32 1007.42 1007.53 1007.60 1007.60 1007.47 1007.21 1006.80 1006.28 1005.70 1005.15 1004.70 1004.43 1004.39 1004.60 1005.06 1005.71 1006.49 1007.33 1008.13 1008.84 1009.44 1009.91 1010.28 1010.60 1010.91 1011.27 1011.70 1012.22 1012.82 1013.48 1014.15 1014.79 1015.35 1015.82 1016.17 1016.41 1016.54 1016.60 1016.61 1016.58 1016.55
1007.22 1007.22 1007.22 1007.23 1007.22 1007.18 1007.06 1006.85 1006.53 1006.11 1005.60 1005.07 1004.57 1004.18 1003.95 1003.94 1004.15 1004.59 1005.21 1005.95 1006.76 1007.55 1008.28 1008.92 1009.47 1009.93 1010.33 1010.73 1011.15 1011.63 1012.18 1012.79 1013.45 1014.12 1014.78 1015.37 1015.88 1016.29 1016.60 1016.81 1016.93 1016.98 1016.98 1016.96
1007.21 1007.18 1007.15 1007.10 1007.03 1006.92 1006.74 1006.49 1006.14 1005.71 1005.22 1004.71 1004.23 1003.85 1003.61 1003.57 1003.72 1004.08 1004.62 1005.29 1006.04 1006.81 1007.57 1008.27 1008.90 1009.47 1009.99 1010.50 1011.01 1011.56 1012.14 1012.77 1013.42 1014.09 1014.73 1015.34 1015.88 1016.35 1016.72 1016.99 1017.19 1017.30 1017.34 1017.34
1007.17 1007.15 1007.12 1007.06 1006.97 1006.84 1006.65 1006.39 1006.04 1005.62 1005.14 1004.64 1004.16 1003.75 1003.46 1003.33 1003.38 1003.62 1004.03 1004.60 1005.27 1006.01 1006.78 1007.54 1008.27 1008.96 1009.62 1010.25 1010.87 1011.48 1012.11 1012.75 1013.39 1014.03 1014.66 1015.26 1015.82 1016.31 1016.73 1017.08 1017.34 1017.53 1017.63 1017.67
1007.15 1007.15 1007.14 1007.11 1007.04 1006.93 1006.76 1006.51 1006.19 1005.79 1005.33 1004.83 1004.32 1003.86 1003.49 1003.25 1003.16 1003.25 1003.52 1003.96 1004.54 1005.24 1006.00 1006.81 1007.64 1008.45 1009.23 1009.99 1010.71 1011.40 1012.07 1012.72 1013.35 1013.96 1014.57 1015.15 1015.70 1016.21 1016.67 1017.08 1017.41 1017.67 1017.84 1017.94
1007.20 1007.23 1007.25 1007.25 1007.22 1007.14 1007.01 1006.80 1006.51 1006.14 1005.69 1005.18 1004.65 1004.13 1003.67 1003.30 1003.08 1003.01 1003.13 1003.44 1003.92 1004.55 1005.31 1006.15 1007.04 1007.95 1008.85 1009.72 1010.54 1011.30 1012.01 1012.67 1013.29 1013.88 1014.45 1015.01 1015.55 1016.07 1016.57 1017.02 1017.42 1017.75 1018.00 1018.17
1007.37 1007.42 1007.47 1007.50 1007.49 1007.45 1007.34 1007.17 1006.90 1006.56 1006.12 1005.61 1005.05 1004.48 1003.94 1003.47 1003.11 1002.91 1002.88 1003.06 1003.43 1003.99 1004.72 1005.57 1006.50 1007.49 1008.47 1009.43 1010.33 1011.15 1011.90 1012.58 1013.20 1013.78 1014.33 1014.86 1015.40 1015.93 1016.46 1016.96 1017.42 1017.82 1018.14 1018.39
1007.70 1007.75 1007.80 1007.83 1007.83 1007.80 1007.70 1007.54 1007.30 1006.97 1006.54 1006.03 1005.46 1004.86 1004.25 1003.70 1003.24 1002.91 1002.76 1002.82 1003.09 1003.57 1004.24 1005.07 1006.02 1007.04 1008.08 1009.10 1010.06 1010.94 1011.74 1012.44 1013.08 1013.66 1014.20 1014.74 1015.28 1015.83 1016.38 1016.92 1017.44 1017.90 1018.30 1018.62
1008.17 1008.20 1008.22 1008.23 1008.21 1008.15 1008.05 1007.88 1007.64 1007.31 1006.90 1006.40 1005.82 1005.20 1004.57 1003.96 1003.43 1003.01 1002.76 1002.71 1002.88 1003.27 1003.87 1004.65 1005.58 1006.60 1007.66 1008.72 1009.73 1010.66 1011.50 1012.25 1012.92 1013.52 1014.09 1014.65 1015.20 1015.78 1016.36 1016.94 1017.51 1018.03 1018.49 1018.87
1008.76 1008.74 1008.71 1008.67 1008.60 1008.50 1008.36 1008.17 1007.91 1007.59 1007.18 1006.70 1006.13 1005.52 1004.88 1004.25 1003.67 1003.20 1002.87 1002.72 1002.80 1003.09 1003.60 1004.32 1005.19 1006.18 1007.24 1008.31 1009.35 1010.32 1011.21 1012.01 1012.73 1013.38 1013.99 1014.58 1015.17 1015.77 1016.39 1017.01 1017.61 1018.18 1018.69 1019.12
1009.39 1009.31 1009.22 1009.11 1008.98 1008.82 1008.64 1008.41 1008.14 1007.82 1007.42 1006.96 1006.43 1005.84 1005.22 1004.59 1004.00 1003.48 1003.09 1002.87 1002.84 1003.03 1003.45 1004.07 1004.87 1005.80 1006.82 1007.88 1008.94 1009.94 1010.88 1011.73 1012.51 1013.22 1013.88 1014.52 1015.16 1015.80 1016.44 1017.09 1017.72 1018.32 1018.86 1019.33
1010.00 1009.87 1009.72 1009.54 1009.35 1009.14 1008.91 1008.66 1008.38 1008.06 1007.70 1007.27 1006.78 1006.23 1005.64 1005.03 1004.43 1003.89 1003.45 1003.15 1003.03 1003.12 1003.42 1003.93 1004.64 1005.49 1006.46 1007.49 1008.54 1009.57 1010.54 1011.44 1012.27 1013.04 1013.76 1014.45 1015.12 1015.80 1016.47 1017.13 1017.78 1018.39 1018.94 1019.42
1010.53 1010.37 1010.17 1009.96 1009.73 1009.48 1009.23 1008.97 1008.70 1008.40 1008.06 1007.67 1007.23 1006.73 1006.17 1005.59 1004.99 1004.43 1003.94 1003.57 1003.36 1003.34 1003.53 1003.93 1004.52 1005.29 1006.18 1007.17 1008.19 1009.22 1010.21 1011.15 1012.02 1012.84 1013.60 1014.32 1015.02 1015.71 1016.40 1017.06 1017.71 1018.32 1018.88 1019.36
1010.98 1010.80 1010.59 1010.36 1010.12 1009.87 1009.62 1009.37 1009.12 1008.85 1008.55 1008.21 1007.82 1007.36 1006.84 1006.27 1005.68 1005.10 1004.56 1004.12 1003.82 1003.69 1003.76 1004.04 1004.52 1005.19 1006.00 1006.92 1007.90 1008.91 1009.90 1010.85 1011.74 1012.58 1013.36 1014.10 1014.81 1015.50 1016.18 1016.84 1017.48 1018.09 1018.64 1019.12
1011.34 1011.18 1010.99 1010.77 1010.54 1010.30 1010.08 1009.86 1009.64 1009.41 1009.16 1008.87 1008.52 1008.10 1007.60 1007.05 1006.45 1005.83 1005.25 1004.74 1004.35 1004.12 1004.08 1004.24 1004.61 1005.17 1005.89 1006.74 1007.66 1008.63 1009.59 1010.52 1011.41 1012.24 1013.02 1013.75 1014.45 1015.13 1015.79 1016.44 1017.06 1017.66 1018.20 1018.69
1011.66 1011.52 1011.35 1011.16 1010.96 1010.76 1010.57 1010.39 1010.21 1010.03 1009.82 1009.56 1009.24 1008.85 1008.37 1007.81 1007.20 1006.56 1005.92 1005.35 1004.88 1004.56 1004.42 1004.47 1004.73 1005.19 1005.82 1006.58 1007.43 1008.33 1009.25 1010.14 1010.99 1011.79 1012.55 1013.25 1013.92 1014.58 1015.21 1015.84 1016.45 1017.04 1017.59 1018.09
1011.94 1011.82 1011.68 1011.52 1011.35 1011.18 1011.03 1010.88 1010.74 1010.58 1010.40 1010.17 1009.88 1009.49 1009.02 1008.46 1007.83 1007.16 1006.48 1005.85 1005.32 1004.92 1004.69 1004.65 1004.82 1005.18 1005.72 1006.39 1007.16 1007.99 1008.84 1009.68 1010.48 1011.23 1011.94 1012.60 1013.24 1013.86 1014.47 1015.09 1015.69 1016.29 1016.85 1017.38
1012.16 1012.06 1011.93 1011.78 1011.63 1011.48 1011.34 1011.21 1011.08 1010.95 1010.78 1010.57 1010.28 1009.90 1009.43 1008.87 1008.22 1007.53 1006.83 1006.17 1005.58 1005.13 1004.84 1004.73 1004.82 1005.09 1005.54 1006.13 1006.82 1007.57 1008.34 1009.11 1009.84 1010.54 1011.20 1011.82 1012.42 1013.01 1013.61 1014.21 1014.82 1015.43 1016.02 1016.58
1012.29 1012.17 1012.03 1011.86 1011.70 1011.54 1011.39 1011.26 1011.13 1010.99 1010.83 1010.61 1010.33 1009.96 1009.50 1008.94 1008.31 1007.62 1006.92 1006.24 1005.64 1005.15 1004.82 1004.66 1004.69 1004.90 1005.27 1005.78 1006.39 1007.06 1007.75 1008.45 1009.12 1009.76 1010.36 1010.95 1011.52 1012.09 1012.67 1013.27 1013.89 1014.52 1015.15 1015.75
1012.26 1012.10 1011.91 1011.70 1011.49 1011.29 1011.11 1010.95 1010.80 1010.65 1010.48 1010.27 1009.99 1009.64 1009.20 1008.67 1008.06 1007.41 1006.73 1006.08 1005.49 1005.00 1004.65 1004.47 1004.45 1004.60 1004.91 1005.35 1005.88 1006.47 1007.10 1007.72 1008.33 1008.92 1009.49 1010.04 1010.58 1011.14 1011.71 1012.32 1012.95 1013.60 1014.26 1014.90
1012.01 1011.78 1011.52 1011.25 1010.97 1010.72 1010.48 1010.28 1010.09 1009.92 1009.74 1009.54 1009.28 1008.96 1008.57 1008.09 1007.54 1006.95 1006.33 1005.73 1005.18 1004.72 1004.38 1004.18 1004.14 1004.25 1004.50 1004.87 1005.33 1005.85 1006.41 1006.97 1007.53 1008.08 1008.61 1009.13 1009.66 1010.21 1010.78 1011.39 1012.03 1012.70 1013.37 1014.04
1011.53 1011.22 1010.88 1010.52 1010.17 1009.84 1009.55 1009.30 1009.08 1008.89 1008.71 1008.52 1008.30 1008.03 1007.69 1007.29 1006.83 1006.32 1005.78 1005.25 1004.76 1004.35 1004.03 1003.84 1003.78 1003.86 1004.06 1004.37 1004.77 1005.23 1005.72 1006.23 1006.74 1007.25 1007.75 1008.26 1008.78 1009.32 1009.89 1010.50 1011.13 1011.80 1012.48 1013.16
1010.84 1010.45 1010.03 1009.59 1009.17 1008.78 1008.43 1008.13 1007.88 1007.67 1007.50 1007.33 1007.15 1006.94 1006.68 1006.37 1006.00 1005.59 1005.15 1004.71 1004.29 1003.93 1003.65 1003.47 1003.40 1003.45 1003.61 1003.87 1004.20 1004.60 1005.03 1005.49 1005.96 1006.44 1006.92 1007.41 1007.92 1008.46 1009.02 1009.62 1010.25 1010.90 1011.56 1012.23
1010.02 1009.56 1009.08 1008.58 1008.10 1007.65 1007.25 1006.91 1006.64 1006.42 1006.25 1006.10 1005.96 1005.81 1005.62 1005.39 1005.11 1004.79 1004.45 1004.09 1003.75 1003.44 1003.20 1003.04 1002.96 1002.99 1003.10 1003.31 1003.59 1003.93 1004.32 1004.73 1005.17 1005.62 1006.08 1006.56 1007.07 1007.59 1008.15 1008.73 1009.34 1009.97 1010.61 1011.24
1009.17 1008.68 1008.15 1007.61 1007.09 1006.60 1006.17 1005.80 1005.50 1005.26 1005.08 1004.94 1004.82 1004.69 1004.55 1004.38 1004.17 1003.93 1003.65 1003.36 1003.08 1002.83 1002.61 1002.46 1002.39 1002.39 1002.48 1002.64 1002.88 1003.17 1003.51 1003.89 1004.30 1004.73 1005.18 1005.66 1006.15 1006.68 1007.22 1007.79 1008.38 1008.98 1009.59 1010.20
1008.41 1007.90 1007.36 1006.80 1006.26 1005.74 1005.28 1004.87 1004.54 1004.27 1004.05 1003.89 1003.74 1003.61 1003.48 1003.32 1003.14 1002.93 1002.70 1002.45 1002.21 1001.98 1001.80 1001.66 1001.58 1001.57 1001.64 1001.78 1001.98 1002.24 1002.56 1002.91 1003.30 1003.72 1004.17 1004.65 1005.14 1005.66 1006.20 1006.77 1007.34 1007.93 1008.52 1009.11
1007.82 1007.32 1006.78 1006.22 1005.66 1005.12 1004.62 1004.17 1003.78 1003.45 1003.16 1002.92 1002.72 1002.53 1002.34 1002.15 1001.95 1001.73 1001.49 1001.26 1001.04 1000.83 1000.66 1000.54 1000.47 1000.46 1000.53 1000.66 1000.85 1001.10 1001.40 1001.75 1002.14 1002.56 1003.02 1003.50 1004.01 1004.54 1005.09 1005.65 1006.23 1006.82 1007.40 1007.99
Thickness
5790 5796 5796 5793 5793 5794 5793 5796 5792 5794 5796 5800 5802 5804 5803 5803 5803 5800 5797 5796 5794 5790 5787 5782 5778 5773 5770 5766 5763 5760 5755 5752 5748 5744 5741 5737 5734 5731 5729 5727 5725 5722 5720 5718
5776 5786 5786 5783 5789 5790 5790 5792 5792 5791 5790 5802 5803 5803 5797 5796 5795 5792 5791 5789 5788 5785 5781 5776 5773 5769 5764 5761 5758 5754 5750 5747 5744 5740 5737 5733 5730 5727 5724 5721 5719 5716 5714 5712
5766 5776 5774 5769 5781 5783 5784 5790 5789 5782 5787 5794 5791 5789 5789 5788 5788 5787 5786 5784 5781 5779 5776 5773 5769 5764 5759 5756 5753 5748 5744 5741 5739 5735 5731 5728 5726 5722 5718 5715 5713 5710 5707 5705
5762 5757 5742 5772 5790 5788 5782 5783 5787 5786 5787 5787 5785 5786 5788 5786 5783 5781 5780 5779 5777 5775 5772 5770 5765 5761 5756 5753 5747 5743 5738 5735 5732 5729 5726 5723 5719 5716 5713 5710 5707 5703 5700 5698
5752 5748 5755 5766 5776 5778 5772 5769 5779 5779 5779 5780 5782 5783 5781 5779 5778 5776 5775 5774 5772 5772 5770 5765 5759 5755 5749 5745 5741 5735 5731 5728 5726 5723 5719 5715 5712 5709 5706 5703 5700 5696 5693 5690
5743 5736 5738 5758 5772 5777 5769 5756 5770 5772 5769 5770 5770 5766 5769 5770 5769 5768 5768 5768 5766 5765 5763 5757 5753 5749 5742 5737 5732 5728 5725 5722 5719 5715 5711 5707 5704 5701 5698 5695 5692 5689 5686 5683
5735 5733 5746 5756 5763 5764 5743 5746 5759 5763 5762 5761 5758 5759 5760 5761 5759 5759 5758 5758 5758 5755 5752 5747 5744 5739 5733 5728 5724 5721 5718 5713 5709 5707 5703 5699 5695 5692 5689 5687 5684 5681 5678 5676
5729 5726 5733 5749 5752 5744 5741 5748 5751 5752 5753 5750 5749 5750 5750 5749 5748 5747 5747 5747 5746 5743 5740 5737 5734 5729 5724 5719 5716 5713 5708 5704 5701 5698 5696 5693 5687 5683 5680 5678 5675 5672 5670 5669
5730 5730 5734 5741 5740 5741 5742 5739 5741 5742 5743 5743 5740 5739 5738 5737 5737 5736 5736 5735 5734 5731 5728 5726 5724 5720 5714 5710 5707 5704 5699 5695 5692 5689 5687 5684 5679 5676 5673 5670 5669 5667 5664 5662
5718 5724 5727 5729 5732 5732 5733 5732 5733 5734 5734 5734 5731 5729 5727 5727 5726 5725 5724 5724 5722 5720 5717 5714 5712 5709 5705 5701 5698 5694 5690 5686 5683 5680 5678 5675 5673 5671 5668 5665 5661 5659 5656 5654
5708 5714 5716 5719 5720 5721 5723 5724 5724 5725 5725 5724 5722 5719 5718 5716 5715 5715 5714 5713 5711 5709 5707 5704 5701 5698 5695 5692 5688 5684 5681 5678 5676 5674 5670 5666 5664 5661 5659 5655 5652 5648 5647 5645
5702 5707 5707 5707 5711 5713 5712 5711 5713 5713 5713 5714 5713 5710 5708 5707 5705 5704 5702 5701 5699 5698 5696 5692 5690 5687 5685 5682 5679 5676 5673 5670 5669 5667 5663 5661 5657 5653 5648 5646 5641 5637 5634 5631
5697 5700 5702 5702 5703 5704 5703 5704 5705 5704 5703 5702 5702 5701 5698 5696 5694 5693 5692 5690 5688 5686 5684 5682 5679 5676 5675 5673 5670 5667 5665 5663 5661 5659 5656 5654 5650 5647 5642 5637 5633 5629 5627 5623
5687 5688 5687 5690 5692 5694 5694 5695 5696 5695 5694 5693 5691 5690 5688 5686 5684 5682 5681 5680 5679 5677 5674 5672 5670 5667 5665 5664 5661 5659 5657 5654 5652 5650 5649 5646 5644 5641 5639 5635 5631 5628 5621 5616
5677 5680 5681 5683 5683 5684 5684 5685 5684 5683 5683 5681 5681 5679 5677 5674 5673 5672 5672 5671 5669 5667 5664 5662 5659 5658 5657 5656 5653 5651 5649 5647 5644 5643 5641 5639 5636 5634 5631 5628 5625 5623 5620 5614
5669 5671 5672 5671 5671 5672 5673 5674 5673 5672 5672 5671 5670 5668 5667 5665 5664 5663 5662 5661 5658 5656 5654 5652 5650 5648 5647 5646 5644 5642 5640 5636 5634 5634 5632 5630 5628 5626 5623 5621 5618 5616 5613 5610
5658 5658 5659 5660 5661 5662 5664 5664 5665 5664 5663 5662 5660 5659 5657 5655 5654 5652 5652 5651 5649 5647 5645 5643 5642 5640 5638 5636 5635 5634 5633 5629 5624 5625 5624 5622 5620 5618 5615 5613 5610 5608 5605 5602
5656 5655 5655 5655 5655 5654 5654 5655 5655 5654 5653 5653 5651 5650 5648 5646 5644 5643 5642 5641 5640 5639 5638 5636 5635 5632 5630 5628 5626 5626 5625 5623 5621 5618 5616 5613 5611 5609 5607 5605 5603 5601 5598 5595
5647 5647 5647 5647 5647 5646 5646 5646 5646 5646 5645 5643 5642 5640 5640 5638 5636 5634 5633 5632 5631 5631 5630 5629 5624 5623 5623 5621 5617 5616 5616 5615 5613 5610 5608 5603 5602 5601 5599 5598 5596 5594 5591 5588
5638 5639 5639 5638 5638 5638 5638 5638 5638 5637 5636 5635 5633 5632 5630 5629 5628 5626 5625 5625 5626 5626 5623 5621 5618 5618 5616 5614 5609 5611 5609 5608 5606 5604 5601 5598 5596 5593 5591 5589 5587 5584 5582 5579
5630 5631 5630 5629 5629 5630 5630 5630 5629 5628 5627 5627 5625 5623 5621 5621 5620 5619 5618 5619 5619 5617 5616 5612 5612 5611 5609 5606 5602 5605 5603 5601 5599 5596 5594 5591 5588 5585 5583 5580 5578 5576 5574 5572
5622 5623 5623 5622 5622 5622 5623 5623 5622 5620 5619 5618 5617 5616 5614 5613 5613 5612 5612 5612 5611 5607 5608 5608 5607 5602 5600 5597 5599 5598 5596 5594 5592 5590 5587 5583 5580 5578 5576 5573 5571 5570 5568 5565
5615 5616 5616 5616 5616 5616 5616 5616 5615 5614 5613 5612 5612 5610 5609 5608 5608 5606 5605 5605 5604 5600 5601 5600 5596 5591 5588 5591 5592 5590 5588 5587 5585 5583 5580 5577 5574 5571 5569 5566 5565 5563 5560 5558
5608 5608 5609 5609 5609 5608 5607 5609 5609 5608 5608 5607 5607 5606 5604 5603 5602 5602 5601 5597 5594 5592 5594 5590 5585 5583 5581 5586 5585 5583 5582 5580 5578 5576 5573 5570 5567 5564 5562 5560 5558 5556 5554 5551
5602 5602 5603 5602 5602 5602 5602 5602 5603 5602 5602 5603 5602 5601 5600 5598 5596 5595 5594 5591 5588 5586 5587 5584 5579 5577 5578 5579 5578 5576 5574 5573 5571 5568 5566 5563 5561 5558 5555 5553 5551 5549 5546 5544
5596 5597 5597 5597 5597 5597 5598 5598 5599 5598 5599 5597 5596 5595 5594 5592 5591 5589 5587 5586 5584 5580 5581 5579 5577 5573 5574 5573 5571 5569 5567 5565 5563 5561 5558 5555 5553 5551 5548 5545 5542 5540 5538 5536
5592 5592 5591 5592 5594 5595 5595 5594 5593 5592 5592 5591 5589 5589 5588 5586 5585 5584 5583 5581 5579 5578 5576 5574 5573 5571 5569 5567 5565 5563 5560 5558 5556 5553 5551 5548 5546 5544 5541 5538 5536 5533 5530 5528